Location: Unspecified
(42.3650°N, 71.1030°W)
Time: 16:39:39
(UTC+00:00)

IRIDIUM 104 - Pass Details

Date: 02 March 2024
Orbit: 776 x 779 km, 86.4° (Epoch: 19 April)

Event Time Altitude Azimuth Distance (km) Brightness Sun altitude
Rises 23:15:16 0° 180° (S) 3,245 7.6 -8.0°
Reaches altitude 10° 23:17:36 10° 180° (S) 2,322 6.8 -8.4°
Maximum altitude 23:22:49 88° 90° (E) 785 4.3 -9.4°
Drops below altitude 10° 23:28:04 10° 3° (N) 2,340 6.8 -10.4°
Sets 23:30:25 0° 4° (N) 3,272 7.5 -10.8°
